Time,TemperatureF,DewpointF,PressureIn,WindDirection,WindDirectionDegrees,WindSpeedMPH,WindSpeedGustMPH,Humidity,HourlyPrecipIn,Conditions,Clouds,dailyrainin,SoftwareType,DateUTC
2013-09-21 00:03:00,65.1,64.5,29.94,NNW,337,0.0,-999.0,98,-99.99,,,0.00,Acu-Link.com,2013-09-21 04:03:00,
2013-09-21 00:18:00,65.1,64.5,29.94,WSW,247,0.0,-999.0,98,-99.99,,,0.00,Acu-Link.com,2013-09-21 04:18:00,
2013-09-21 00:33:00,65.3,64.7,29.93,WSW,247,0.0,-999.0,98,-99.99,,,0.00,Acu-Link.com,2013-09-21 04:33:00,
2013-09-21 00:49:00,65.3,64.7,29.93,WSW,247,0.0,-999.0,98,-99.99,,,0.00,Acu-Link.com,2013-09-21 04:49:00,
2013-09-21 01:04:00,65.3,64.7,29.93,WSW,247,0.0,-999.0,98,-99.99,,,0.00,Acu-Link.com,2013-09-21 05:04:00,
2013-09-21 01:19:00,65.3,64.7,29.93,WSW,247,0.0,-999.0,98,-99.99,,,0.00,Acu-Link.com,2013-09-21 05:19:00,
2013-09-21 01:34:00,65.3,64.7,29.92,WSW,247,0.0,-999.0,98,-99.99,,,0.00,Acu-Link.com,2013-09-21 05:34:00,
2013-09-21 01:49:00,65.3,64.7,29.92,WSW,247,1.6,-999.0,98,-99.99,,,0.00,Acu-Link.com,2013-09-21 05:49:00,
2013-09-21 02:05:00,65.3,64.7,29.92,WSW,247,0.0,-999.0,98,-99.99,,,0.00,Acu-Link.com,2013-09-21 06:05:00,
2013-09-21 02:20:00,65.3,64.7,29.92,WSW,247,0.0,-999.0,98,-99.99,,,0.00,Acu-Link.com,2013-09-21 06:20:00,
2013-09-21 02:35:00,65.3,64.7,29.91,WSW,247,0.0,-999.0,98,-99.99,,,0.00,Acu-Link.com,2013-09-21 06:35:00,
2013-09-21 02:50:00,65.3,64.7,29.91,WSW,247,0.0,-999.0,98,-99.99,,,0.00,Acu-Link.com,2013-09-21 06:50:00,
2013-09-21 03:05:00,65.3,64.7,29.90,WSW,247,0.0,-999.0,98,-99.99,,,0.00,Acu-Link.com,2013-09-21 07:05:00,
2013-09-21 03:21:00,65.3,64.7,29.90,WSW,247,0.0,-999.0,98,-99.99,,,0.00,Acu-Link.com,2013-09-21 07:21:00,
2013-09-21 03:36:00,65.5,64.9,29.89,WSW,247,0.0,-999.0,98,-99.99,,,0.00,Acu-Link.com,2013-09-21 07:36:00,
2013-09-21 03:51:00,65.5,64.9,29.90,WSW,247,0.0,-999.0,98,-99.99,,,0.00,Acu-Link.com,2013-09-21 07:51:00,
2013-09-21 04:07:00,65.5,64.9,29.89,WSW,247,1.6,-999.0,98,-99.99,,,0.00,Acu-Link.com,2013-09-21 08:07:00,
2013-09-21 04:23:00,65.5,64.9,29.88,WSW,247,0.0,-999.0,98,-99.99,,,0.00,Acu-Link.com,2013-09-21 08:23:00,
2013-09-21 04:39:00,65.5,64.9,29.88,WSW,247,1.6,-999.0,98,-99.99,,,0.00,Acu-Link.com,2013-09-21 08:39:00,
2013-09-21 04:54:00,65.3,64.7,29.87,WSW,247,0.0,-999.0,98,-99.99,,,0.00,Acu-Link.com,2013-09-21 08:54:00,
2013-09-21 05:10:00,65.3,64.7,29.87,WSW,247,0.0,-999.0,98,-99.99,,,0.00,Acu-Link.com,2013-09-21 09:10:00,
2013-09-21 05:25:00,65.3,64.7,29.86,WSW,247,0.0,-999.0,98,-99.99,,,0.00,Acu-Link.com,2013-09-21 09:25:00,
2013-09-21 05:40:00,65.3,64.7,29.86,WSW,247,0.0,-999.0,98,-99.99,,,0.00,Acu-Link.com,2013-09-21 09:40:00,
2013-09-21 05:55:00,65.3,64.7,29.84,WSW,247,0.0,-999.0,98,-99.99,,,0.00,Acu-Link.com,2013-09-21 09:55:00,
2013-09-21 06:10:00,65.3,64.7,29.83,WSW,247,2.7,-999.0,98,-99.99,,,0.00,Acu-Link.com,2013-09-21 10:10:00,
2013-09-21 06:26:00,65.3,64.7,29.83,NNW,337,2.7,-999.0,98,-99.99,,,0.00,Acu-Link.com,2013-09-21 10:26:00,
2013-09-21 06:41:00,65.3,64.7,29.83,NNW,337,3.1,-999.0,98,-99.99,,,0.00,Acu-Link.com,2013-09-21 10:41:00,
2013-09-21 06:56:00,65.1,64.5,29.83,NNW,337,1.6,-999.0,98,-99.99,,,0.00,Acu-Link.com,2013-09-21 10:56:00,
2013-09-21 07:11:00,65.1,64.5,29.83,NNW,337,3.1,-999.0,98,-99.99,,,0.00,Acu-Link.com,2013-09-21 11:11:00,
2013-09-21 07:26:00,65.1,64.5,29.83,NNW,337,0.0,-999.0,98,-99.99,,,0.00,Acu-Link.com,2013-09-21 11:26:00,
2013-09-21 07:42:00,65.1,64.5,29.83,WNW,292,2.2,-999.0,98,-99.99,,,0.00,Acu-Link.com,2013-09-21 11:42:00,
2013-09-21 07:57:00,65.7,65.1,29.82,WNW,292,2.2,-999.0,98,-99.99,,,0.00,Acu-Link.com,2013-09-21 11:57:00,
2013-09-21 08:12:00,65.7,65.1,29.82,North,0,2.7,-999.0,98,-99.99,,,0.00,Acu-Link.com,2013-09-21 12:12:00,
2013-09-21 08:27:00,66.6,66.0,29.82,NW,315,0.0,-999.0,98,-99.99,,,0.00,Acu-Link.com,2013-09-21 12:27:00,
2013-09-21 08:42:00,67.1,66.5,29.82,NW,315,0.0,-999.0,98,-99.99,,,0.00,Acu-Link.com,2013-09-21 12:42:00,
2013-09-21 08:58:00,68.7,68.1,29.81,NNW,337,1.6,-999.0,98,-99.99,,,0.00,Acu-Link.com,2013-09-21 12:58:00,
2013-09-21 09:13:00,68.2,67.6,29.81,North,0,2.7,-999.0,98,-99.99,,,0.00,Acu-Link.com,2013-09-21 13:13:00,
2013-09-21 09:28:00,68.9,68.3,29.81,NNW,337,4.7,-999.0,98,-99.99,,,0.00,Acu-Link.com,2013-09-21 13:28:00,
2013-09-21 09:43:00,69.4,68.8,29.81,ENE,67,1.6,-999.0,98,-99.99,,,0.00,Acu-Link.com,2013-09-21 13:43:00,
2013-09-21 09:58:00,69.8,69.2,29.81,North,0,0.0,-999.0,98,-99.99,,,0.00,Acu-Link.com,2013-09-21 13:58:00,
2013-09-21 10:14:00,69.3,68.7,29.81,NE,45,1.6,-999.0,98,-99.99,,,0.00,Acu-Link.com,2013-09-21 14:14:00,
2013-09-21 10:29:00,69.4,68.8,29.81,NW,315,3.1,-999.0,98,-99.99,,,0.00,Acu-Link.com,2013-09-21 14:29:00,
2013-09-21 10:44:00,69.1,68.5,29.80,NNW,337,1.6,-999.0,98,-99.99,,,0.00,Acu-Link.com,2013-09-21 14:44:00,
2013-09-21 10:59:00,70.0,69.4,29.79,NE,45,3.1,-999.0,98,-99.99,,,0.00,Acu-Link.com,2013-09-21 14:59:00,
2013-09-21 11:15:00,70.9,70.3,29.79,NE,45,4.3,-999.0,98,-99.99,,,0.00,Acu-Link.com,2013-09-21 15:15:00,
2013-09-21 11:30:00,71.8,71.2,29.78,NNW,337,3.8,-999.0,98,-99.99,,,0.00,Acu-Link.com,2013-09-21 15:30:00,
2013-09-21 11:45:00,71.6,71.0,29.77,North,0,2.7,-999.0,98,-99.99,,,0.00,Acu-Link.com,2013-09-21 15:45:00,
2013-09-21 12:00:00,69.8,69.2,29.76,NW,315,3.1,-999.0,98,-99.99,,,0.00,Acu-Link.com,2013-09-21 16:00:00,
2013-09-21 12:15:00,70.0,69.4,29.76,NNW,337,1.6,-999.0,98,-99.99,,,0.00,Acu-Link.com,2013-09-21 16:15:00,
2013-09-21 12:31:00,70.0,69.4,29.75,North,0,3.1,-999.0,98,-99.99,,,0.00,Acu-Link.com,2013-09-21 16:31:00,
2013-09-21 12:46:00,70.7,70.1,29.74,West,270,2.7,-999.0,98,-99.99,,,0.00,Acu-Link.com,2013-09-21 16:46:00,
2013-09-21 13:01:00,71.8,71.2,29.74,SSW,202,4.3,-999.0,98,-99.99,,,0.00,Acu-Link.com,2013-09-21 17:01:00,
2013-09-21 13:16:00,72.0,71.4,29.74,SW,225,2.2,-999.0,98,-99.99,,,0.00,Acu-Link.com,2013-09-21 17:16:00,
2013-09-21 13:31:00,71.6,71.0,29.74,SW,225,0.0,-999.0,98,-99.99,,,0.01,Acu-Link.com,2013-09-21 17:31:00,
2013-09-21 13:47:00,71.2,70.6,29.72,SW,225,1.6,-999.0,98,-99.99,,,0.01,Acu-Link.com,2013-09-21 17:47:00,
2013-09-21 14:02:00,70.2,69.6,29.72,SW,225,0.0,-999.0,98,-99.99,,,0.08,Acu-Link.com,2013-09-21 18:02:00,
2013-09-21 14:17:00,69.1,68.5,29.73,SSW,202,2.2,-999.0,98,-99.99,,,0.17,Acu-Link.com,2013-09-21 18:17:00,
2013-09-21 14:32:00,69.1,68.5,29.71,SSW,202,2.7,-999.0,98,-99.99,,,0.21,Acu-Link.com,2013-09-21 18:32:00,
2013-09-21 14:47:00,68.9,68.3,29.70,SSW,202,0.0,-999.0,98,-99.99,,,0.26,Acu-Link.com,2013-09-21 18:47:00,
2013-09-21 15:03:00,69.4,68.8,29.70,SSW,202,0.0,-999.0,98,-99.99,,,0.35,Acu-Link.com,2013-09-21 19:03:00,
2013-09-21 15:18:00,68.9,68.3,29.69,SSW,202,0.0,-999.0,98,-99.99,,,0.40,Acu-Link.com,2013-09-21 19:18:00,
2013-09-21 15:33:00,69.1,68.5,29.68,SSW,202,0.0,-999.0,98,-99.99,,,0.43,Acu-Link.com,2013-09-21 19:33:00,
2013-09-21 15:48:00,68.4,67.8,29.69,SSW,202,2.2,-999.0,98,-99.99,,,0.44,Acu-Link.com,2013-09-21 19:48:00,
2013-09-21 16:04:00,67.5,66.9,29.68,SW,225,1.6,-999.0,98,-99.99,,,0.48,Acu-Link.com,2013-09-21 20:04:00,
2013-09-21 16:19:00,65.7,65.1,29.70,SSW,202,0.0,-999.0,98,-99.99,,,0.63,Acu-Link.com,2013-09-21 20:19:00,
2013-09-21 16:34:00,64.4,63.8,29.71,SSW,202,1.6,-999.0,98,-99.99,,,0.71,Acu-Link.com,2013-09-21 20:34:00,
2013-09-21 16:49:00,64.2,63.6,29.71,SW,225,3.1,-999.0,98,-99.99,,,0.77,Acu-Link.com,2013-09-21 20:49:00,
2013-09-21 17:04:00,63.5,62.9,29.71,SW,225,3.1,-999.0,98,-99.99,,,0.85,Acu-Link.com,2013-09-21 21:04:00,
2013-09-21 17:20:00,63.0,62.4,29.71,SW,225,3.8,-999.0,98,-99.99,,,0.91,Acu-Link.com,2013-09-21 21:20:00,
2013-09-21 17:35:00,62.6,62.0,29.72,SW,225,4.3,-999.0,98,-99.99,,,0.98,Acu-Link.com,2013-09-21 21:35:00,
2013-09-21 17:50:00,62.6,62.0,29.72,SW,225,3.1,-999.0,98,-99.99,,,1.02,Acu-Link.com,2013-09-21 21:50:00,
2013-09-21 18:05:00,62.4,61.8,29.72,SW,225,1.6,-999.0,98,-99.99,,,1.04,Acu-Link.com,2013-09-21 22:05:00,
2013-09-21 18:20:00,62.2,61.7,29.72,SW,225,1.6,-999.0,98,-99.99,,,1.05,Acu-Link.com,2013-09-21 22:20:00,
2013-09-21 18:36:00,61.9,61.3,29.72,SW,225,2.2,-999.0,98,-99.99,,,1.06,Acu-Link.com,2013-09-21 22:36:00,
2013-09-21 18:51:00,61.9,61.3,29.73,SW,225,0.0,-999.0,98,-99.99,,,1.06,Acu-Link.com,2013-09-21 22:51:00,
2013-09-21 19:06:00,61.7,61.1,29.72,SW,225,0.0,-999.0,98,-99.99,,,1.06,Acu-Link.com,2013-09-21 23:06:00,
2013-09-21 19:21:00,61.7,61.1,29.73,SW,225,0.0,-999.0,98,-99.99,,,1.06,Acu-Link.com,2013-09-21 23:21:00,
2013-09-21 19:36:00,61.3,60.8,29.74,SW,225,2.7,-999.0,98,-99.99,,,1.06,Acu-Link.com,2013-09-21 23:36:00,
2013-09-21 19:52:00,61.2,60.6,29.74,SW,225,1.1,-999.0,98,-99.99,,,1.06,Acu-Link.com,2013-09-21 23:52:00,
2013-09-21 20:07:00,61.0,60.4,29.74,SW,225,0.0,-999.0,98,-99.99,,,1.06,Acu-Link.com,2013-09-22 00:07:00,
2013-09-21 20:22:00,60.6,60.1,29.74,SW,225,0.0,-999.0,98,-99.99,,,1.06,Acu-Link.com,2013-09-22 00:22:00,
2013-09-21 20:37:00,59.9,59.3,29.75,SW,225,0.0,-999.0,98,-99.99,,,1.06,Acu-Link.com,2013-09-22 00:37:00,
2013-09-21 20:53:00,59.4,58.8,29.75,SW,225,0.0,-999.0,98,-99.99,,,1.06,Acu-Link.com,2013-09-22 00:53:00,
2013-09-21 21:08:00,58.3,57.7,29.75,SW,225,0.0,-999.0,98,-99.99,,,1.06,Acu-Link.com,2013-09-22 01:08:00,
2013-09-21 21:23:00,58.1,57.5,29.75,SW,225,0.0,-999.0,98,-99.99,,,1.06,Acu-Link.com,2013-09-22 01:23:00,
2013-09-21 21:38:00,58.3,57.7,29.75,SW,225,0.0,-999.0,98,-99.99,,,1.06,Acu-Link.com,2013-09-22 01:38:00,
2013-09-21 21:53:00,58.5,57.9,29.76,SW,225,0.0,-999.0,98,-99.99,,,1.06,Acu-Link.com,2013-09-22 01:53:00,
2013-09-21 22:09:00,58.1,57.5,29.76,SW,225,1.6,-999.0,98,-99.99,,,1.06,Acu-Link.com,2013-09-22 02:09:00,
2013-09-21 22:24:00,58.1,57.5,29.76,SW,225,1.6,-999.0,98,-99.99,,,1.06,Acu-Link.com,2013-09-22 02:24:00,
2013-09-21 22:39:00,58.8,58.3,29.77,SW,225,2.2,-999.0,98,-99.99,,,1.06,Acu-Link.com,2013-09-22 02:39:00,
2013-09-21 22:54:00,58.8,58.3,29.76,SW,225,2.7,-999.0,98,-99.99,,,1.06,Acu-Link.com,2013-09-22 02:54:00,
2013-09-21 23:09:00,57.9,57.4,29.75,SW,225,2.2,-999.0,98,-99.99,,,1.06,Acu-Link.com,2013-09-22 03:09:00,
2013-09-21 23:25:00,57.4,56.8,29.76,SW,225,1.1,-999.0,98,-99.99,,,1.06,Acu-Link.com,2013-09-22 03:25:00,
2013-09-21 23:40:00,57.0,56.5,29.76,SW,225,0.0,-999.0,98,-99.99,,,1.06,Acu-Link.com,2013-09-22 03:40:00,
2013-09-21 23:55:00,56.8,56.3,29.76,SW,225,0.0,-999.0,98,-99.99,,,1.06,Acu-Link.com,2013-09-22 03:55:00,